SCP
1 0 0 0 0 0 0 0 0 0 0 0 0 0 0 0 0 0 0 0 0 0 0 0 0 0 0 0 0 0 0 0 0 0 0 0 0 0 0 1 0 0 0
1 1 0 0 0 0 0 0 0 0 0 0 0 0 0 0 0 0 0 0 0 0 0 0 0 0 0 0 0 0 0 0 0 0 0 0 0 0 0 0 1 0 0
1 1 1 1 1 0 0 0 0 0 0 0 0 0 0 0 0 0 0 0 0 0 0 0 0 1 0 1 1 1 1 0 0 0 0 0 0 0 0 0 0 0 0
1 1 1 1 1 0 0 0 0 0 0 0 0 0 0 0 0 0 0 1 1 1 0 1 1 1 1 1 1 1 1 1 1 0 0 0 0 0 0 0 0 0 0
2 2 2 1 1 0 0 0 0 0 0 0 0 0 0 1 1 1 1 1 1 1 1 1 1 1 1 2 2 2 2 2 1 1 1 0 1 1 1 1 0 0 0
2 3 3 2 1 1 0 0 1 0 0 0 0 0 0 0 1 1 1 1 1 1 1 1 1 1 1 1 2 2 2 2 1 1 1 0 1 1 1 1 0 0 0
2 2 5 3 2 1 1 1 0 1 0 1 1 0 0 1 1 1 2 2 1 1 1 1 1 1 1 1 3 3 3 2 2 1 1 0 0 1 0 1 1 0 0
4 3 3 5 3 3 1 1 1 1 1 0 1 1 1 1 2 2 3 2 1 1 1 2 3 2 2 2 2 1 1 2 4 2 1 1 0 1 1 0 0 0 0
4 5 4 4 4 3 2 1 2 1 1 1 1 1 2 1 2 4 2 2 2 1 1 1 2 2 1 1 1 1 1 2 2 1 0 0 1 0 1 0 0 0 0
3 3 5 4 4 4 3 2 2 2 1 1 2 1 4 2 2 3 3 2 1 1 1 1 1 1 1 1 1 2 2 1 1 0 -0 1 1 1 0 0 0 0 0
3 3 4 4 5 4 3 2 1 3 2 1 1 3 4 3 3 2 2 2 1 1 2 2 1 0 0 0 0 0 1 0 0 0 0 0 1 0 0 0 0 0 0
3 3 4 4 4 4 3 3 3 2 3 2 2 2 3 3 2 2 1 1 1 0 1 0 0 0 0 0 0 0 0 0 0 0 0 0 0 0 0 0 0 0 0
3 3 3 4 5 5 4 5 5 4 3 4 4 5 3 2 2 1 1 1 0 0 0 0 0 0 0 0 0 0 0 0 -0 0 0 0 0 0 -0 0 0 0 0
2 3 3 3 3 4 5 5 6 7 6 6 4 5 4 3 2 1 1 0 0 0 0 0 0 0 0 0 0 0 0 0 0 0 0 0 0 -0 -0 0 0 0 0
1 1 1 1 1 2 2 2 0 0 0 4 7 5 3 3 2 1 0 0 0 0 0 0 0 0 0 0 0 0 0 0 0 0 0 0 0 -0 0 0 0 0 0
0 0 0 0 0 0 0 0 0 0 0 0 1 3 2 2 1 1 1 0 0 0 0 0 0 0 0 0 0 0 0 0 0 0 0 0 0 0 0 0 0 0 0
-0 0 0 0 0 0 0 0 0 0 0 -0 -0 2 2 2 2 2 1 1 1 1 1 0 0 0 0 0 0 0 0 0 0 0 0 0 0 0 0 0 0 0 0
-0 0 0 0 0 0 0 0 0 0 0 0 0 2 2 1 1 2 1 1 1 1 1 0 0 0 0 0 0 0 0 0 0 0 0 0 0 0 0 0 0 0 0
-0 0 0 0 1 0 0 0 0 0 0 0 0 0 0 1 1 1 1 1 1 1 0 0 0 0 0 0 0 0 0 0 0 0 0 0 0 0 0 0 0 0 0
-0 -0 0 0 0 0 0 0 0 -0 -0 -0 -1 0 0 0 0 0 0 0 0 0 0 0 0 0 0 0 0 0 0 0 0 0 0 0 0 0 0 0 0 0 0
-0 0 0 0 0 0 -0 -0 0 -0 -0 -0 0 0 0 0 0 0 0 0 0 0 0 0 0 0 0 0 0 0 0 0 0 0 0 0 0 0 0 0 0 0 0
0 -0 0 0 -0 0 -0 -0 0 0 -0 -0 0 0 0 0 0 0 0 0 0 0 0 0 0 0 -0 -0 0 0 0 0 0 0 0 0 0 0 0 0 0 0 0
0 -0 -0 0 0 -0 -0 -0 -0 0 0 0 0 0 0 0 0 0 0 0 0 0 0 0 0 0 0 0 0 0 0 0 0 0 0 0 0 0 0 0 -0 -0 0
-0 -0 -0 0 -0 0 -0 -0 -0 0 0 0 0 0 0 0 0 0 0 0 0 0 0 0 0 0 0 0 0 0 0 0 0 0 0 0 0 0 0 0 0 -0 0
-0 -0 0 0 0 -0 0 -0 0 0 0 0 0 0 0 0 0 0 0 0 0 0 0 0 0 0 -0 -0 0 0 0 0 0 0 0 0 0 0 0 0 0 -0 -0
0 -0 0 0 0 0 0 0 0 0 0 0 0 0 0 0 0 0 0 0 0 0 0 0 0 -0 -0 -0 -0 0 0 -0 0 0 0 0 0 0 0 0 0 0 -0
Wind_Speed_500mb
62 58 56 53 50 48 49 47 43 39 37 34 33 31 25 29 30 26 28 23 26 25 21 16 12 10 12 10 9 8 6 8 10 8 9 13 18 20 20 22 28 27 28
69 70 67 63 58 57 50 54 50 47 44 40 37 34 27 32 33 37 37 37 34 29 25 19 18 15 15 13 13 13 6 4 17 18 14 16 18 20 24 25 28 31 30
70 73 75 74 70 65 55 53 58 53 55 49 43 38 35 27 29 39 38 41 42 36 31 27 23 23 19 19 20 13 7 8 10 16 19 18 21 24 26 27 29 31 33
62 72 77 81 77 72 70 65 64 62 60 59 50 46 42 38 31 32 38 45 47 46 42 38 34 31 27 26 25 20 13 13 15 20 24 29 28 29 33 32 34 33 34
69 68 79 84 84 82 72 72 73 70 69 67 58 52 47 46 41 34 37 35 28 38 45 41 41 40 39 36 32 32 23 20 17 18 23 30 35 40 41 40 36 38 36
77 77 78 85 85 87 86 76 78 74 76 72 62 55 49 48 49 45 44 40 44 42 44 49 49 53 50 45 36 36 32 30 22 22 39 37 39 43 47 47 44 41 41
81 81 85 85 91 90 94 88 86 88 87 82 62 57 54 52 56 57 59 55 53 47 55 56 51 52 51 49 43 38 36 38 34 46 50 58 49 51 53 51 52 46 44
94 88 90 92 96 99 100 100 101 97 94 84 72 60 58 65 51 66 63 60 57 59 56 52 51 50 51 52 47 43 42 43 44 58 56 55 56 59 57 53 51 51 49
90 103 102 102 100 102 107 105 105 100 99 88 80 63 26 36 64 63 66 68 60 54 51 52 52 53 57 58 48 46 57 59 63 55 55 52 57 58 57 54 49 48 51
89 96 103 107 103 101 107 115 106 107 100 94 84 87 60 33 39 39 63 67 57 49 50 56 59 57 47 50 52 62 53 60 63 59 59 60 57 63 55 50 44 48 46
93 97 106 109 110 107 110 111 116 124 115 100 97 95 95 68 45 30 42 61 57 55 54 59 59 55 51 52 65 67 54 65 57 57 64 63 67 67 66 58 51 45 41
96 99 100 106 114 111 109 112 114 116 113 109 106 98 100 93 87 69 48 48 55 56 61 61 60 51 56 61 51 49 47 57 53 57 68 71 65 59 49 49 48 35 35
95 100 102 102 112 119 117 116 108 111 117 124 116 92 87 87 81 74 76 62 59 56 53 56 59 58 64 47 38 40 41 49 53 57 57 54 50 43 37 42 32 25 34
92 95 102 108 107 117 127 118 122 112 123 117 120 109 94 84 79 77 69 63 54 57 58 60 60 62 42 36 41 25 34 42 46 49 50 48 44 38 36 27 25 26 29
85 93 95 102 99 100 114 113 74 87 92 101 115 101 87 88 84 71 70 64 59 54 59 59 59 43 31 29 36 36 37 50 53 44 43 44 36 31 29 24 23 22 25
74 85 87 89 101 99 105 106 105 78 104 101 108 91 78 73 70 64 62 58 59 56 57 55 50 40 32 32 32 33 35 45 46 37 48 39 33 31 26 24 22 20 19
69 68 75 82 92 96 86 61 66 47 34 106 113 59 60 65 65 64 56 53 51 55 59 59 45 37 30 27 33 36 41 41 34 31 31 32 28 23 23 22 21 18 18
71 64 73 71 78 73 71 59 76 64 66 82 54 32 48 54 57 54 47 48 49 52 55 49 37 32 34 27 25 32 30 36 36 38 30 27 31 28 27 21 21 19 21
74 67 66 70 72 80 58 49 44 53 35 24 36 43 52 58 47 43 39 41 39 46 40 38 41 32 25 22 27 33 38 37 38 39 37 31 33 32 33 29 24 24 24
63 65 60 58 62 60 48 40 37 59 58 53 58 64 63 57 49 44 44 36 33 30 26 25 33 33 20 22 21 23 28 33 30 34 31 35 38 37 32 26 28 25 24
58 62 57 51 59 61 65 58 55 56 59 54 56 55 52 47 43 39 39 34 32 34 29 34 36 42 38 32 33 33 27 31 31 32 33 37 34 26 11 13 18 21 22
52 60 64 55 61 56 62 63 56 60 65 63 60 52 47 46 39 33 32 28 30 33 31 31 30 40 52 37 22 21 27 34 38 31 34 37 27 19 10 14 17 9 8
62 57 65 52 62 109 78 72 74 69 68 70 71 73 62 50 39 33 23 18 15 10 8 5 9 20 34 33 25 27 27 30 30 24 33 32 23 17 18 17 18 10 5
93 79 61 68 79 40 63 78 75 74 73 65 71 65 54 48 34 23 17 14 12 15 11 11 19 26 32 33 28 31 33 39 37 30 27 21 17 22 23 16 22 10 6
68 82 58 66 54 73 74 86 84 78 73 74 62 55 52 42 34 25 19 15 10 13 17 24 30 32 34 31 32 41 45 45 41 34 26 29 18 20 23 17 17 9 8
56 75 57 52 57 53 82 72 85 78 81 69 53 56 47 37 30 21 15 10 4 5 2 15 29 31 35 37 38 43 44 39 35 25 14 19 10 15 15 20 17 11 12
Wind_Direction_500mb
227 229 231 230 229 229 227 228 229 229 231 233 231 238 242 245 246 222 240 240 241 262 261 253 249 279 279 261 221 190 236 274 269 273 303 304 299 291 290 286 271 268 267
227 225 228 229 231 228 228 228 228 229 230 230 233 235 234 235 228 215 237 241 247 254 258 253 252 253 263 251 220 184 190 255 277 280 276 290 297 291 281 280 275 270 267
235 227 224 228 229 227 222 226 223 227 230 229 230 232 233 234 242 225 217 230 238 246 252 255 252 246 246 227 206 209 225 267 287 288 287 283 285 291 285 278 270 269 267
245 234 228 227 231 227 227 227 221 218 227 230 230 226 230 232 230 232 229 238 245 249 246 251 253 249 240 230 222 222 249 273 289 291 293 292 292 284 283 278 271 269 269
248 242 234 229 230 227 226 227 221 221 221 224 227 228 226 228 240 237 236 243 258 246 245 250 249 249 240 232 234 233 247 270 294 302 313 306 297 287 281 278 272 269 270
241 243 244 237 232 231 225 223 224 224 228 228 226 230 222 227 230 230 232 237 241 246 250 259 255 246 237 235 240 248 263 272 274 296 312 299 292 290 283 276 270 266 266
249 242 242 242 237 234 233 224 225 225 224 231 231 231 226 227 231 227 232 237 240 250 253 251 254 249 237 237 245 247 255 267 285 305 304 302 294 285 287 281 270 264 263
247 246 244 245 244 239 235 232 228 230 233 233 228 225 233 229 236 232 228 234 248 257 254 249 255 239 234 239 243 247 258 273 281 307 305 298 291 286 277 282 275 265 263
248 247 248 247 244 242 239 235 232 230 234 232 223 218 219 227 229 229 231 242 247 248 242 238 238 233 239 246 254 262 265 276 298 295 294 292 289 293 281 279 280 271 261
254 250 249 252 249 245 241 237 234 233 230 227 225 221 224 224 222 225 235 239 247 247 236 233 240 237 246 253 264 270 276 296 292 287 295 298 293 289 287 276 278 277 263
257 254 251 250 253 248 243 238 238 232 227 229 227 219 221 221 219 222 214 227 237 244 244 238 240 241 251 276 284 278 273 294 287 286 294 291 290 285 281 282 279 271 260
267 259 251 249 251 250 248 243 236 233 229 226 229 224 221 215 224 228 229 231 240 250 246 241 243 247 270 298 286 283 287 292 290 291 293 295 291 283 280 278 279 263 253
276 264 258 249 249 252 249 247 237 235 230 225 225 220 218 219 227 234 232 243 248 249 245 247 253 266 290 290 295 291 296 280 288 292 297 301 297 283 277 279 264 249 251
274 274 265 258 252 253 255 249 246 240 234 226 223 217 218 227 227 230 233 237 241 248 254 260 270 282 287 287 284 296 292 304 300 292 301 301 295 284 276 268 261 258 254
281 272 270 262 260 254 253 252 244 296 273 233 225 219 213 219 227 231 235 242 251 248 256 270 277 282 296 288 282 295 306 308 305 293 301 299 295 283 272 272 272 265 257
294 276 272 270 263 262 261 259 265 269 272 289 232 212 214 218 214 226 234 238 246 256 262 271 270 275 287 279 282 292 297 308 308 305 308 297 292 280 276 275 276 262 254
301 295 280 277 267 261 260 272 268 242 316 272 263 213 210 220 216 224 227 236 237 252 259 264 264 277 282 285 304 300 298 300 301 313 318 301 300 279 267 271 257 247 256
313 299 288 282 267 263 261 249 247 247 253 307 219 223 221 230 227 229 228 234 245 249 250 257 268 267 277 288 301 309 311 311 299 314 325 309 300 290 279 260 242 250 263
320 304 291 283 273 257 243 240 233 242 242 183 207 217 225 228 223 221 226 228 238 246 251 251 262 271 285 301 305 305 306 306 310 310 310 306 302 288 277 251 245 254 266
305 317 296 272 260 245 222 192 166 161 138 188 210 221 221 221 221 218 221 221 217 220 212 239 265 280 272 268 296 336 300 300 312 309 309 299 299 291 276 257 260 262 266
298 302 296 268 249 228 203 183 168 183 193 212 224 220 224 215 209 193 185 186 209 232 234 250 261 276 280 280 278 300 300 300 315 312 295 306 292 273 259 293 283 271 273
293 298 296 246 207 214 196 194 177 195 209 218 208 200 195 183 176 184 201 204 225 240 248 253 262 275 285 295 297 309 309 310 318 311 312 311 278 255 226 260 243 240 249
276 293 283 272 242 230 229 196 197 193 201 198 191 179 175 181 189 188 182 186 203 216 248 265 275 284 292 294 302 305 306 308 313 304 304 298 293 257 251 218 218 199 254
267 273 285 279 254 248 245 224 196 197 197 193 184 175 183 171 172 156 163 182 200 212 223 256 267 278 285 287 300 305 306 302 296 289 278 278 291 278 252 238 198 190 239
262 256 272 273 274 267 262 262 194 193 190 177 179 179 173 167 170 172 170 171 197 232 242 256 263 268 277 288 294 290 290 287 280 276 261 275 278 242 265 235 176 198 200
265 253 265 259 265 247 263 262 197 189 174 173 179 176 178 174 171 174 165 166 107 71 226 265 267 273 273 284 284 282 287 273 261 267 294 286 277 218 178 190 168 172 190
Wind_Speed_850mb
62 58 56 53 50 48 49 47 43 39 37 34 33 31 25 29 30 26 28 23 26 25 21 16 12 10 12 10 9 8 6 8 10 8 9 13 18 20 20 22 28 27 28
69 70 67 63 58 57 50 54 50 47 44 40 37 34 27 32 33 37 37 37 34 29 25 19 18 15 15 13 13 13 6 4 17 18 14 16 18 20 24 25 28 31 30
70 73 75 74 70 65 55 53 58 53 55 49 43 38 35 27 29 39 38 41 42 36 31 27 23 23 19 19 20 13 7 8 10 16 19 18 21 24 26 27 29 31 33
62 72 77 81 77 72 70 65 64 62 60 59 50 46 42 38 31 32 38 45 47 46 42 38 34 31 27 26 25 20 13 13 15 20 24 29 28 29 33 32 34 33 34
69 68 79 84 84 82 72 72 73 70 69 67 58 52 47 46 41 34 37 35 28 38 45 41 41 40 39 36 32 32 23 20 17 18 23 30 35 40 41 40 36 38 36
77 77 78 85 85 87 86 76 78 74 76 72 62 55 49 48 49 45 44 40 44 42 44 49 49 53 50 45 36 36 32 30 22 22 39 37 39 43 47 47 44 41 41
81 81 85 85 91 90 94 88 86 88 87 82 62 57 54 52 56 57 59 55 53 47 55 56 51 52 51 49 43 38 36 38 34 46 50 58 49 51 53 51 52 46 44
94 88 90 92 96 99 100 100 101 97 94 84 72 60 58 65 51 66 63 60 57 59 56 52 51 50 51 52 47 43 42 43 44 58 56 55 56 59 57 53 51 51 49
90 103 102 102 100 102 107 105 105 100 99 88 80 63 26 36 64 63 66 68 60 54 51 52 52 53 57 58 48 46 57 59 63 55 55 52 57 58 57 54 49 48 51
89 96 103 107 103 101 107 115 106 107 100 94 84 87 60 33 39 39 63 67 57 49 50 56 59 57 47 50 52 62 53 60 63 59 59 60 57 63 55 50 44 48 46
93 97 106 109 110 107 110 111 116 124 115 100 97 95 95 68 45 30 42 61 57 55 54 59 59 55 51 52 65 67 54 65 57 57 64 63 67 67 66 58 51 45 41
96 99 100 106 114 111 109 112 114 116 113 109 106 98 100 93 87 69 48 48 55 56 61 61 60 51 56 61 51 49 47 57 53 57 68 71 65 59 49 49 48 35 35
95 100 102 102 112 119 117 116 108 111 117 124 116 92 87 87 81 74 76 62 59 56 53 56 59 58 64 47 38 40 41 49 53 57 57 54 50 43 37 42 32 25 34
92 95 102 108 107 117 127 118 122 112 123 117 120 109 94 84 79 77 69 63 54 57 58 60 60 62 42 36 41 25 34 42 46 49 50 48 44 38 36 27 25 26 29
85 93 95 102 99 100 114 113 74 87 92 101 115 101 87 88 84 71 70 64 59 54 59 59 59 43 31 29 36 36 37 50 53 44 43 44 36 31 29 24 23 22 25
74 85 87 89 101 99 105 106 105 78 104 101 108 91 78 73 70 64 62 58 59 56 57 55 50 40 32 32 32 33 35 45 46 37 48 39 33 31 26 24 22 20 19
69 68 75 82 92 96 86 61 66 47 34 106 113 59 60 65 65 64 56 53 51 55 59 59 45 37 30 27 33 36 41 41 34 31 31 32 28 23 23 22 21 18 18
71 64 73 71 78 73 71 59 76 64 66 82 54 32 48 54 57 54 47 48 49 52 55 49 37 32 34 27 25 32 30 36 36 38 30 27 31 28 27 21 21 19 21
74 67 66 70 72 80 58 49 44 53 35 24 36 43 52 58 47 43 39 41 39 46 40 38 41 32 25 22 27 33 38 37 38 39 37 31 33 32 33 29 24 24 24
63 65 60 58 62 60 48 40 37 59 58 53 58 64 63 57 49 44 44 36 33 30 26 25 33 33 20 22 21 23 28 33 30 34 31 35 38 37 32 26 28 25 24
58 62 57 51 59 61 65 58 55 56 59 54 56 55 52 47 43 39 39 34 32 34 29 34 36 42 38 32 33 33 27 31 31 32 33 37 34 26 11 13 18 21 22
52 60 64 55 61 56 62 63 56 60 65 63 60 52 47 46 39 33 32 28 30 33 31 31 30 40 52 37 22 21 27 34 38 31 34 37 27 19 10 14 17 9 8
62 57 65 52 62 109 78 72 74 69 68 70 71 73 62 50 39 33 23 18 15 10 8 5 9 20 34 33 25 27 27 30 30 24 33 32 23 17 18 17 18 10 5
93 79 61 68 79 40 63 78 75 74 73 65 71 65 54 48 34 23 17 14 12 15 11 11 19 26 32 33 28 31 33 39 37 30 27 21 17 22 23 16 22 10 6
68 82 58 66 54 73 74 86 84 78 73 74 62 55 52 42 34 25 19 15 10 13 17 24 30 32 34 31 32 41 45 45 41 34 26 29 18 20 23 17 17 9 8
56 75 57 52 57 53 82 72 85 78 81 69 53 56 47 37 30 21 15 10 4 5 2 15 29 31 35 37 38 43 44 39 35 25 14 19 10 15 15 20 17 11 12
Wind_Direction_850mb
227 229 231 230 229 229 227 228 229 229 231 233 231 238 242 245 246 222 240 240 241 262 261 253 249 279 279 261 221 190 236 274 269 273 303 304 299 291 290 286 271 268 267
227 225 228 229 231 228 228 228 228 229 230 230 233 235 234 235 228 215 237 241 247 254 258 253 252 253 263 251 220 184 190 255 277 280 276 290 297 291 281 280 275 270 267
235 227 224 228 229 227 222 226 223 227 230 229 230 232 233 234 242 225 217 230 238 246 252 255 252 246 246 227 206 209 225 267 287 288 287 283 285 291 285 278 270 269 267
245 234 228 227 231 227 227 227 221 218 227 230 230 226 230 232 230 232 229 238 245 249 246 251 253 249 240 230 222 222 249 273 289 291 293 292 292 284 283 278 271 269 269
248 242 234 229 230 227 226 227 221 221 221 224 227 228 226 228 240 237 236 243 258 246 245 250 249 249 240 232 234 233 247 270 294 302 313 306 297 287 281 278 272 269 270
241 243 244 237 232 231 225 223 224 224 228 228 226 230 222 227 230 230 232 237 241 246 250 259 255 246 237 235 240 248 263 272 274 296 312 299 292 290 283 276 270 266 266
249 242 242 242 237 234 233 224 225 225 224 231 231 231 226 227 231 227 232 237 240 250 253 251 254 249 237 237 245 247 255 267 285 305 304 302 294 285 287 281 270 264 263
247 246 244 245 244 239 235 232 228 230 233 233 228 225 233 229 236 232 228 234 248 257 254 249 255 239 234 239 243 247 258 273 281 307 305 298 291 286 277 282 275 265 263
248 247 248 247 244 242 239 235 232 230 234 232 223 218 219 227 229 229 231 242 247 248 242 238 238 233 239 246 254 262 265 276 298 295 294 292 289 293 281 279 280 271 261
254 250 249 252 249 245 241 237 234 233 230 227 225 221 224 224 222 225 235 239 247 247 236 233 240 237 246 253 264 270 276 296 292 287 295 298 293 289 287 276 278 277 263
257 254 251 250 253 248 243 238 238 232 227 229 227 219 221 221 219 222 214 227 237 244 244 238 240 241 251 276 284 278 273 294 287 286 294 291 290 285 281 282 279 271 260
267 259 251 249 251 250 248 243 236 233 229 226 229 224 221 215 224 228 229 231 240 250 246 241 243 247 270 298 286 283 287 292 290 291 293 295 291 283 280 278 279 263 253
276 264 258 249 249 252 249 247 237 235 230 225 225 220 218 219 227 234 232 243 248 249 245 247 253 266 290 290 295 291 296 280 288 292 297 301 297 283 277 279 264 249 251
274 274 265 258 252 253 255 249 246 240 234 226 223 217 218 227 227 230 233 237 241 248 254 260 270 282 287 287 284 296 292 304 300 292 301 301 295 284 276 268 261 258 254
281 272 270 262 260 254 253 252 244 296 273 233 225 219 213 219 227 231 235 242 251 248 256 270 277 282 296 288 282 295 306 308 305 293 301 299 295 283 272 272 272 265 257
294 276 272 270 263 262 261 259 265 269 272 289 232 212 214 218 214 226 234 238 246 256 262 271 270 275 287 279 282 292 297 308 308 305 308 297 292 280 276 275 276 262 254
301 295 280 277 267 261 260 272 268 242 316 272 263 213 210 220 216 224 227 236 237 252 259 264 264 277 282 285 304 300 298 300 301 313 318 301 300 279 267 271 257 247 256
313 299 288 282 267 263 261 249 247 247 253 307 219 223 221 230 227 229 228 234 245 249 250 257 268 267 277 288 301 309 311 311 299 314 325 309 300 290 279 260 242 250 263
320 304 291 283 273 257 243 240 233 242 242 183 207 217 225 228 223 221 226 228 238 246 251 251 262 271 285 301 305 305 306 306 310 310 310 306 302 288 277 251 245 254 266
305 317 296 272 260 245 222 192 166 161 138 188 210 221 221 221 221 218 221 221 217 220 212 239 265 280 272 268 296 336 300 300 312 309 309 299 299 291 276 257 260 262 266
298 302 296 268 249 228 203 183 168 183 193 212 224 220 224 215 209 193 185 186 209 232 234 250 261 276 280 280 278 300 300 300 315 312 295 306 292 273 259 293 283 271 273
293 298 296 246 207 214 196 194 177 195 209 218 208 200 195 183 176 184 201 204 225 240 248 253 262 275 285 295 297 309 309 310 318 311 312 311 278 255 226 260 243 240 249
276 293 283 272 242 230 229 196 197 193 201 198 191 179 175 181 189 188 182 186 203 216 248 265 275 284 292 294 302 305 306 308 313 304 304 298 293 257 251 218 218 199 254
267 273 285 279 254 248 245 224 196 197 197 193 184 175 183 171 172 156 163 182 200 212 223 256 267 278 285 287 300 305 306 302 296 289 278 278 291 278 252 238 198 190 239
262 256 272 273 274 267 262 262 194 193 190 177 179 179 173 167 170 172 170 171 197 232 242 256 263 268 277 288 294 290 290 287 280 276 261 275 278 242 265 235 176 198 200
265 253 265 259 265 247 263 262 197 189 174 173 179 176 178 174 171 174 165 166 107 71 226 265 267 273 273 284 284 282 287 273 261 267 294 286 277 218 178 190 168 172 190